Weather History for Barter Island, AK

Change the Weather History Date:

Tuesday, January 28, 2014

  Actual Average Record
Temperature  
Mean Temperature 8 °F -  
Max Temperature 10 °F -5 °F 10 °F (2014)
Min Temperature 6 °F -17 °F -32 °F (2012)
Degree Days  
Heating Degree Days 57    
Moisture  
Dew Point 6 °F    
Average Humidity 89    
Maximum Humidity 92    
Minimum Humidity 85    
Precipitation  
Precipitation 0.00 in - - ()
Sea Level Pressure  
Sea Level Pressure 30.01 in    
Wind  
Wind Speed 17 mph (East)    
Max Wind Speed 24 mph    
Max Gust Speed 28 mph    
Visibility 8 miles    
Events Snow    
Averages and records for this station are not official NWS values.
T = Trace of Precipitation, MM = Missing Value Source: NWS Daily Summary

Daily Weather History Graph

Daily Weather History Graph

Search for Another Location

Airport:

Trip Planner

Search our weather history database for the weather conditions in past years. The results will help you decide how hot, cold, wet, or windy it might be!

Date:

Astronomy

Jan. 28, 2014 Rise Set
Actual Time 10:43 AM AKST 2:52 PM AKST
Civil Twilight 9:08 AM AKST 4:26 PM AKST
Nautical Twilight 7:47 AM AKST 5:48 PM AKST
Astronomical Twilight 6:35 AM AKST 7:00 PM AKST
Moon 9:18 AM AKST (1/28) 12:10 PM AKST (1/28)
Length of Visible Light 7h 17m
Length of Day
4h 09m
Waning Crescent, 6% of the Moon is Illuminated
Jan 28
Waning Crescent
Jan 30
New
Feb 6
First Quarter
Feb 14
Full
Feb 22
Last Quarter

Hourly Weather History & Observations

Time (AKST) Temp. Windchill Dew Point Humidity Pressure Visibility Wind Dir Wind Speed Gust Speed Precip Events Conditions
12:01 AM 7.0 °F -9.8 °F 5.0 °F 92% 30.01 in 10.0 mi East 13.8 mph - 0.00 in   Clear
1:01 AM 7.0 °F -8.3 °F 3.9 °F 87% 30.03 in 10.0 mi ENE 11.5 mph - N/A   Clear
2:01 AM 6.1 °F -10.9 °F 3.9 °F 91% 30.02 in 10.0 mi ENE 13.8 mph - N/A   Clear
2:32 AM 6.8 °F -11.3 °F 3.2 °F 85% 30.01 in 10.0 mi East 16.1 mph - N/A   Mostly Cloudy
3:01 AM 6.8 °F -12.4 °F 5.0 °F 92% 30.02 in 9.0 mi ENE 18.4 mph - 0.00 in Snow Light Snow
3:18 AM 8.6 °F -10.5 °F 5.0 °F 85% 30.03 in 9.0 mi ENE 19.6 mph - 0.00 in   Mostly Cloudy
3:53 AM 8.6 °F -10.5 °F 5.0 °F 85% 30.02 in 10.0 mi East 19.6 mph - 0.00 in Snow Light Snow
4:01 AM 8.1 °F -11.2 °F 5.0 °F 87% 30.02 in 9.0 mi East 19.6 mph - 0.00 in   Partly Cloudy
5:01 AM 8.1 °F -11.7 °F 5.0 °F 87% 30.03 in 5.0 mi East 20.7 mph - N/A Snow Light Snow
5:08 AM 8.6 °F -9.5 °F 5.0 °F 85% 30.02 in 5.0 mi East 17.3 mph - 0.00 in Snow Light Snow
6:01 AM 8.1 °F -10.2 °F 6.1 °F 92% 30.03 in 9.0 mi East 17.3 mph - 0.00 in Snow Light Snow
7:01 AM 8.1 °F -10.7 °F 5.0 °F 87% 30.02 in 9.0 mi East 18.4 mph - 0.00 in Snow Light Snow
8:01 AM 10.0 °F -6.5 °F 7.0 °F 87% 30.01 in 4.0 mi East 15.0 mph - 0.00 in Snow Light Snow
9:01 AM 8.1 °F -11.2 °F 6.1 °F 92% 30.02 in 9.0 mi ENE 19.6 mph - 0.00 in   Overcast
10:01 AM 8.6 °F -12.3 °F 6.8 °F 92% 30.01 in 2.5 mi East 24.2 mph - 0.00 in Snow Light Snow
10:25 AM 8.6 °F -12.3 °F 5.0 °F 85% 30.02 in 1.8 mi East 24.2 mph - 0.00 in Snow Light Snow
10:38 AM 8.6 °F -11.9 °F 5.0 °F 85% 30.02 in 2.5 mi East 23.0 mph - 0.00 in Snow Light Snow
10:59 AM 8.6 °F -11.4 °F 5.0 °F 85% 30.02 in 3.0 mi East 21.9 mph - 0.00 in Snow Light Snow
11:01 AM 8.1 °F -12.6 °F 5.0 °F 87% 30.02 in 3.0 mi East 23.0 mph - 0.00 in Snow Light Snow
12:01 PM 8.1 °F -9.0 °F 6.1 °F 92% 30.02 in 9.0 mi East 15.0 mph - 0.00 in Snow Light Snow
1:01 PM 9.0 °F -8.5 °F 6.1 °F 88% 30.02 in 10.0 mi East 16.1 mph - 0.00 in   Overcast
2:01 PM 10.0 °F -7.6 °F 8.1 °F 92% 30.00 in 10.0 mi East 17.3 mph - N/A   Overcast
3:01 PM 10.0 °F -9.5 °F 8.1 °F 92% 29.99 in 9.0 mi East 21.9 mph 27.6 mph N/A   Overcast
4:01 PM 10.0 °F -9.5 °F 8.1 °F 92% 29.99 in 4.0 mi East 21.9 mph - N/A   Overcast
5:01 PM 10.0 °F -7.6 °F 7.0 °F 87% 29.99 in 10.0 mi East 17.3 mph - 0.00 in   Overcast
5:29 PM 10.4 °F -7.7 °F 6.8 °F 85% 30.00 in 10.0 mi East 18.4 mph - N/A   Overcast
6:01 PM 9.0 °F -9.0 °F 7.0 °F 92% 30.01 in 10.0 mi East 17.3 mph - 0.00 in   Overcast
7:01 PM 9.0 °F -9.5 °F 6.1 °F 88% 30.01 in 10.0 mi East 18.4 mph - 0.00 in Snow Light Snow
7:40 PM 10.4 °F -7.7 °F 8.6 °F 92% 30.01 in 10.0 mi East 18.4 mph - 0.00 in   Overcast
8:01 PM 10.0 °F -6.5 °F 8.1 °F 92% 30.01 in 9.0 mi East 15.0 mph - 0.00 in Snow Light Snow
9:01 PM 10.0 °F -7.1 °F 8.1 °F 92% 30.01 in 9.0 mi ESE 16.1 mph - 0.00 in Snow Light Snow
9:32 PM 10.4 °F -6.0 °F 8.6 °F 92% 30.01 in 10.0 mi ESE 15.0 mph - 0.00 in   Overcast
10:01 PM 10.0 °F -5.2 °F 7.0 °F 87% 30.01 in 9.0 mi East 12.7 mph - 0.00 in Snow Light Snow
10:21 PM 10.4 °F -4.1 °F 6.8 °F 85% 30.00 in 9.0 mi East 11.5 mph - 0.00 in Snow Light Snow
11:01 PM 10.0 °F -5.2 °F 7.0 °F 87% 30.00 in 9.0 mi ESE 12.7 mph - 0.00 in Snow Light Snow